Regional Weather Roundup
Issued by NWS

Home | Current Version | Previous Version | Text Only | Print | Product List | Glossary On
Versions: 1 2 3 4 5 6 7 8 9 10 11 12 13 14 15 16 17 18 19 20 21 22 23 24 25 26 27 28 29 30 31 32 33 34 35 36 37 38 39 40 41 42 43 44 45 46 47 48 49 50
000
ASUS42 KFFC 181803
RWRGA
WEATHER ROUNDUP FOR GEORGIA
NATIONAL WEATHER SERVICE PEACHTREE CITY GA
200 PM EDT THU SEP 18 2014

NOTE: "FAIR" INDICATES FEW OR NO CLOUDS BELOW 12,000 FEET WITH NO
SIGNIFICANT WEATHER AND/OR OBSTRUCTIONS TO VISIBILITY.

* = USE WITH CAUTION. THE STATIONS MARKED WITH AN ASTERISK MAY NOT
REPORT WEATHER SUCH AS PRECIPITATION, FOG, OR THUNDER AND ARE NOT
QUALITY CONTROLLED BY NWS.

THE REMARK "TC" DENOTES TEMPERATURE READING IN DEGREES CELSIUS.

GAZ001>058-181900-
NORTH GEORGIA

CITY           SKY/WX    TMP DP  RH WIND       PRES   REMARKS
ATLANTA        MOSUNNY   83  62  49 SE5       29.99F
6HR MIN TEMP:  66; 6HR MAX TEMP:  83;

ATHENS         MOSUNNY   80  61  52 CALM      29.99F
6HR MIN TEMP:  68; 6HR MAX TEMP:  81;

CHAMBLEE       CLOUDY    80  58  46 N6        29.99F
6HR MIN TEMP:  67; 6HR MAX TEMP:  82;

PEACHTREE CITY MOSUNNY   83  63  50 VRB3      29.99F
6HR MIN TEMP:  59; 6HR MAX TEMP:  83;

ROME           SUNNY     82  53  36 CALM      29.98F
6HR MIN TEMP:  60; 6HR MAX TEMP:  84;

WEST ATLANTA   MOSUNNY   82  61  48 CALM      29.98F
6HR MIN TEMP:  61; 6HR MAX TEMP:  83;

GAINESVILLE    MOSUNNY   77  61  57 CALM      30.02F
6HR MIN TEMP:  65; 6HR MAX TEMP:  79;

CARTERSVILLE   SUNNY     83  52  34 NW5       29.99F
6HR MIN TEMP:  58; 6HR MAX TEMP:  83;



CITY           SKY/WX    TMP DP  RH WIND       PRES   REMARKS
DALTON*        PTSUNNY   77  55  47 CALM      30.00S
LAWRENCEVILLE* MOSUNNY   79  59  50 SE5       30.00F
KENNESAW*      PTSUNNY   79  57  47 CALM      30.01F
$$

GAZ059>098-102>109-181900-
CENTRAL GEORGIA

CITY           SKY/WX    TMP DP  RH WIND       PRES   REMARKS
AUGUSTA-BUSH   PTSUNNY   79  67  66 SE3       29.96F
6HR MIN TEMP:  68; 6HR MAX TEMP:  80;

AUGUSTA-DANIEL SUNNY     82  67  60 E6        29.98F
6HR MIN TEMP:  69; 6HR MAX TEMP:  82;

COLUMBUS       PTSUNNY   84  56  38 NE3       29.96F
6HR MIN TEMP:  64; 6HR MAX TEMP:  84;

MACON          PTSUNNY   78  67  68 VRB3      29.98F
6HR MIN TEMP:  68; 6HR MAX TEMP:  78;



CITY           SKY/WX    TMP DP  RH WIND       PRES   REMARKS
LAGRANGE*      PTSUNNY   82  67  61 SE3       29.99F
SYLVANIA*      MOSUNNY   83  71  67 CALM      29.97F
MILLEDGEVILLE* CLOUDY    75  70  83 CALM      29.99S
$$

GAZ099>101-110>166-181900-
SOUTH GEORGIA

CITY           SKY/WX    TMP DP  RH WIND       PRES   REMARKS
SAVANNAH       PTSUNNY   85  70  60 NE5       29.93F
6HR MIN TEMP:  75; 6HR MAX TEMP:  88;

VALDOSTA       SUNNY     89  63  41 CALM      29.93F HX  90
6HR MIN TEMP:  71; 6HR MAX TEMP:  89;

ALMA           MOSUNNY   85  71  63 N8        29.94F HX  90
6HR MIN TEMP:  68; 6HR MAX TEMP:  86;

ST SIMONS      MOSUNNY   85  71  63 SE10      29.92F HX  90
6HR MIN TEMP:  73; 6HR MAX TEMP:  87;

ALBANY         SUNNY     88  54  31 VRB6      29.96F
BRUNSWICK      MOSUNNY   88  72  58 CALM      29.93S HX  94


CITY           SKY/WX    TMP DP  RH WIND       PRES   REMARKS
BAINBRIDGE*    MOSUNNY   91  66  43 N6        29.93F HX  94
MOULTRIE*      SUNNY     88  59  37 N5        29.95F
VIDALIA*       PTSUNNY   81  72  74 N5        29.97F
WAYCROSS*      MOSUNNY   91  68  47 N5        29.93F HX  94
DOUGLAS*       MOSUNNY   86  68  54 NE6       29.96F
$$


USA.gov is the U.S. government's official web portal to all federal, state and local government web resources and services.